Date,TemperatureHighF,TemperatureAvgF,TemperatureLowF,DewpointHighF,DewpointAvgF,DewpointLowF,HumidityHigh,HumidityAvg,HumidityLow,PressureMaxIn,PressureMinIn,WindSpeedMaxMPH,WindSpeedAvgMPH,GustSpeedMaxMPH,PrecipitationSumIn
2013-1-1,35,29,21,32,21,5,97,74,48,32.27,32.27,0,0,0,0.00
2013-1-2,33,21,15,11,8,4,80,58,38,32.27,32.27,9,1,9,0.00
2013-1-3,35,24,14,16,11,6,80,59,40,32.27,32.27,17,5,17,0.00
2013-1-4,36,30,26,19,15,12,64,54,44,32.27,32.27,21,8,21,0.00
2013-1-5,44,33,25,21,17,14,69,52,35,32.27,32.27,15,6,15,0.00
2013-1-6,39,34,27,32,23,19,91,64,52,32.27,32.27,22,6,22,0.00
2013-1-7,42,32,27,23,20,17,79,64,38,32.27,32.27,10,4,10,0.00
2013-1-8,50,36,25,26,22,18,79,57,38,32.27,32.27,13,4,13,0.00
2013-1-9,52,44,36,40,29,19,84,56,43,32.27,32.27,20,7,20,0.00
2013-1-10,42,38,30,29,25,23,89,61,49,32.27,32.27,11,4,11,0.00
2013-1-11,62,52,42,52,43,25,91,73,50,32.27,32.27,20,6,20,0.00
2013-1-12,67,58,50,59,54,47,93,86,59,32.27,32.27,13,4,13,0.00
2013-1-13,64,59,40,60,52,38,94,78,63,32.27,27.08,24,8,24,0.00
2013-1-14,40,31,26,38,22,16,92,68,53,28.97,28.23,15,4,15,0.00
2013-1-15,32,28,24,20,18,15,80,65,52,0.00,40.00,11,4,11,0.00
2013-1-16,35,32,30,27,24,18,83,74,58,0.00,40.00,13,4,13,0.00
2013-1-17,39,33,28,26,21,13,72,62,47,0.00,40.00,15,4,15,0.00
2013-1-18,37,28,19,14,10,3,62,46,34,0.00,40.00,19,7,19,0.00
2013-1-19,56,45,33,28,17,13,81,33,20,32.27,40.00,24,11,24,0.00
2013-1-20,47,34,23,26,11,5,52,39,31,0.00,40.00,27,8,27,0.00
2013-1-21,28,20,10,12,4,-8,65,48,42,0.00,40.00,28,8,28,0.00
2013-1-22,18,11,6,-4,-9,-11,45,40,34,0.00,40.00,20,7,20,0.00
2013-1-23,21,15,9,12,-3,-13,79,46,34,0.00,40.00,13,5,13,0.00
2013-1-24,23,17,13,12,4,-2,81,57,38,0.00,40.00,17,3,17,0.00
2013-1-25,26,19,15,19,7,-1,86,60,46,0.00,40.00,12,4,12,0.00
2013-1-26,32,25,20,19,14,6,84,63,49,0.00,40.00,13,4,13,0.00
2013-1-27,39,27,15,28,12,6,85,55,39,0.00,40.00,10,4,10,0.00
2013-1-28,53,44,32,50,42,28,96,90,74,0.00,40.00,19,6,19,0.00
2013-1-29,71,61,52,51,48,42,93,66,38,0.00,40.00,22,9,22,0.00
2013-1-30,65,56,34,56,46,28,92,71,53,0.00,40.00,42,11,42,0.00
2013-1-31,34,27,20,28,14,5,84,59,42,0.00,40.00,33,12,33,0.00